| time (UTC) | temp F | wind direction | speed MPH | gust MPH | rain 1hr in | rain 24hr in | rain mn in | humidity % | barometer mb |
| 20260905190117 | 85 | 125 | 10.0 | 14.0 | 0.00 | 0.00 | 0.00 | 32 | 1010.3 |
| 20260905184532 | 86 | 167 | 7.0 | 17.0 | 0.00 | 0.00 | 0.00 | 31 | 1010.5 |
| 20260905183012 | 86 | 122 | 6.0 | 11.0 | 0.00 | 0.00 | 0.00 | 30 | 1010.6 |
| 20260905181544 | 85 | 173 | 4.0 | 11.0 | 0.00 | 0.00 | 0.00 | 32 | 1010.7 |
| 20260905180118 | 84 | 193 | 6.0 | 12.0 | 0.00 | 0.00 | 0.00 | 32 | 1010.7 |
| 20260905174536 | 83 | 119 | 8.0 | 13.0 | 0.00 | 0.00 | 0.00 | 33 | 1010.7 |
| 20260905173013 | 82 | 148 | 8.0 | 15.0 | 0.00 | 0.00 | 0.00 | 34 | 1010.8 |
| 20260905171555 | 81 | 181 | 6.0 | 13.0 | 0.00 | 0.00 | 0.00 | 38 | 1010.9 |
| 20260905170009 | 80 | 131 | 6.0 | 12.0 | 0.00 | 0.00 | 0.00 | 40 | 1011.0 |
| 20260905164545 | 79 | 141 | 5.0 | 14.0 | 0.00 | 0.00 | 0.00 | 41 | 1011.0 |
| 20260905163020 | 78 | 188 | 8.0 | 12.0 | 0.00 | 0.00 | 0.00 | 42 | 1010.9 |
| 20260905161559 | 76 | 144 | 8.0 | 13.0 | 0.00 | 0.00 | 0.00 | 44 | 1010.9 |
| 20260905160051 | 74 | 176 | 8.0 | 12.0 | 0.00 | 0.00 | 0.00 | 47 | 1011.0 |
| 20260905154600 | 73 | 147 | 7.0 | 12.0 | 0.00 | 0.00 | 0.00 | 51 | 1011.1 |
| 20260905153035 | 70 | 177 | 5.0 | 10.0 | 0.00 | 0.00 | 0.00 | 52 | 1011.1 |
| 20260905151510 | 68 | 167 | 4.0 | 7.0 | 0.00 | 0.00 | 0.00 | 55 | 1011.0 |
| 20260905150045 | 66 | 169 | 3.0 | 6.0 | 0.00 | 0.00 | 0.00 | 58 | 1011.0 |
| 20260905144600 | 64 | 360 | 2.0 | 6.0 | 0.00 | 0.00 | 0.00 | 60 | 1011.0 |
| 20260905144502 | 64 | 360 | 1.0 | 6.0 | 0.00 | 0.00 | 0.00 | 61 | 1011.0 |
| 20260905143041 | 62 | 360 | 2.0 | 5.0 | 0.00 | 0.00 | 0.00 | 65 | 1010.9 |
| 20260905141516 | 59 | 360 | 3.0 | 4.0 | 0.00 | 0.00 | 0.00 | 70 | 1010.8 |
| 20260905140059 | 56 | 360 | 2.0 | 5.0 | 0.00 | 0.00 | 0.00 | 73 | 1010.6 |
| 20260905134509 | 55 | 152 | 3.0 | 6.0 | 0.00 | 0.00 | 0.00 | 75 | 1010.6 |
| 20260905133050 | 54 | 360 | 1.0 | 3.0 | 0.00 | 0.00 | 0.00 | 73 | 1010.2 |
| 20260905131525 | 55 | 155 | 1.0 | 3.0 | 0.00 | 0.00 | 0.00 | 73 | 1010.0 |
| 20260905130104 | 55 | 155 | 1.0 | 3.0 | 0.00 | 0.00 | 0.00 | 71 | 1009.8 |
| 20260905124521 | 56 | 156 | 0.0 | 0.0 | 0.00 | 0.00 | 0.00 | 71 | 1009.7 |
| 20260905123104 | 56 | 157 | 0.0 | 2.0 | 0.00 | 0.00 | 0.00 | 70 | 1009.6 |
| 20260905121544 | 57 | 157 | 0.0 | 2.0 | 0.00 | 0.00 | 0.00 | 68 | 1009.6 |
| 20260905120117 | 57 | 157 | 0.0 | 0.0 | 0.00 | 0.00 | 0.00 | 67 | 1009.4 |
| 20260905114541 | 58 | 157 | 0.0 | 1.0 | 0.00 | 0.00 | 0.00 | 67 | 1009.4 |
| 20260905113018 | 58 | 158 | 0.0 | 1.0 | 0.00 | 0.00 | 0.00 | 65 | 1009.4 |
| 20260905111507 | 59 | 158 | 0.0 | 2.0 | 0.00 | 0.00 | 0.00 | 64 | 1009.4 |
| 20260905110045 | 59 | 158 | 0.0 | 2.0 | 0.00 | 0.00 | 0.00 | 63 | 1009.3 |
| 20260905104555 | 59 | 158 | 1.0 | 3.0 | 0.00 | 0.00 | 0.00 | 63 | 1009.3 |
| 20260905103045 | 60 | 158 | 0.0 | 3.0 | 0.00 | 0.00 | 0.00 | 62 | 1009.1 |
| 20260905101539 | 60 | 158 | 2.0 | 5.0 | 0.00 | 0.00 | 0.00 | 61 | 1009.1 |
| 20260905100116 | 60 | 158 | 3.0 | 6.0 | 0.00 | 0.00 | 0.00 | 61 | 1009.1 |
| 20260905094534 | 60 | 158 | 3.0 | 6.0 | 0.00 | 0.00 | 0.00 | 61 | 1009.2 |
| 20260905093018 | 61 | 158 | 1.0 | 6.0 | 0.00 | 0.00 | 0.00 | 60 | 1009.2 |
| 20260905091559 | 61 | 159 | 2.0 | 6.0 | 0.00 | 0.00 | 0.00 | 60 | 1009.1 |
| 20260905090049 | 62 | 192 | 1.0 | 3.0 | 0.00 | 0.00 | 0.00 | 63 | 1009.1 |
| 20260905084508 | 63 | 192 | 1.0 | 3.0 | 0.00 | 0.00 | 0.00 | 64 | 1009.3 |
| 20260905083050 | 63 | 192 | 0.0 | 2.0 | 0.00 | 0.00 | 0.00 | 63 | 1009.3 |
| 20260905081531 | 64 | 192 | 0.0 | 0.0 | 0.00 | 0.00 | 0.00 | 60 | 1009.3 |
| 20260905080115 | 65 | 192 | 0.0 | 2.0 | 0.00 | 0.00 | 0.00 | 59 | 1009.4 |
| 20260905074532 | 66 | 192 | 0.0 | 2.0 | 0.00 | 0.00 | 0.00 | 58 | 1009.3 |
| 20260905073014 | 66 | 360 | 1.0 | 3.0 | 0.00 | 0.00 | 0.00 | 57 | 1009.2 |
| 20260905071552 | 66 | 194 | 0.0 | 3.0 | 0.00 | 0.00 | 0.00 | 54 | 1009.1 |
| 20260905070051 | 66 | 199 | 2.0 | 5.0 | 0.00 | 0.00 | 0.00 | 53 | 1009.0 |
| 20260905064609 | 66 | 132 | 4.0 | 11.0 | 0.00 | 0.00 | 0.00 | 59 | 1009.0 |
| 20260905063036 | 66 | 167 | 0.0 | 0.0 | 0.00 | 0.00 | 0.00 | 59 | 1008.8 |
| 20260905061528 | 67 | 167 | 0.0 | 0.0 | 0.00 | 0.00 | 0.00 | 58 | 1008.8 |
| 20260905060059 | 67 | 19 | 1.0 | 3.0 | 0.00 | 0.00 | 0.00 | 58 | 1008.8 |
| 20260905054534 | 68 | 13 | 1.0 | 3.0 | 0.00 | 0.00 | 0.00 | 56 | 1008.7 |
| 20260905053014 | 69 | 360 | 1.0 | 3.0 | 0.00 | 0.00 | 0.00 | 55 | 1008.6 |
| 20260905051548 | 69 | 360 | 1.0 | 4.0 | 0.00 | 0.00 | 0.00 | 54 | 1008.7 |
| 20260905050047 | 70 | 360 | 3.0 | 5.0 | 0.00 | 0.00 | 0.00 | 52 | 1008.6 |
| 20260905044559 | 70 | 360 | 3.0 | 6.0 | 0.00 | 0.00 | 0.00 | 51 | 1008.5 |
| 20260905044503 | 71 | 360 | 3.0 | 6.0 | 0.00 | 0.00 | 0.00 | 51 | 1008.5 |
| 20260905043053 | 72 | 360 | 2.0 | 4.0 | 0.00 | 0.00 | 0.00 | 49 | 1008.4 |
| 20260905041531 | 72 | 360 | 2.0 | 6.0 | 0.00 | 0.00 | 0.00 | 48 | 1008.3 |
| 20260905040014 | 73 | 360 | 3.0 | 8.0 | 0.00 | 0.00 | 0.00 | 46 | 1008.2 |
| 20260905034539 | 73 | 360 | 2.0 | 5.0 | 0.00 | 0.00 | 0.00 | 46 | 1008.2 |
| 20260905033035 | 74 | 360 | 3.0 | 6.0 | 0.00 | 0.00 | 0.00 | 45 | 1008.0 |
| 20260905031530 | 75 | 360 | 2.0 | 4.0 | 0.00 | 0.00 | 0.00 | 44 | 1007.8 |
| 20260905030119 | 75 | 360 | 2.0 | 4.0 | 0.00 | 0.00 | 0.00 | 43 | 1007.6 |
| 20260905024527 | 76 | 360 | 3.0 | 8.0 | 0.00 | 0.00 | 0.00 | 42 | 1007.3 |
| 20260905023021 | 77 | 360 | 3.0 | 8.0 | 0.00 | 0.00 | 0.00 | 42 | 1007.2 |
| 20260905021520 | 77 | 360 | 3.0 | 8.0 | 0.00 | 0.00 | 0.00 | 42 | 1007.1 |
| 20260905020047 | 78 | 13 | 6.0 | 14.0 | 0.00 | 0.00 | 0.00 | 40 | 1006.9 |
| 20260905014513 | 79 | 13 | 5.0 | 13.0 | 0.00 | 0.00 | 0.00 | 39 | 1006.9 |
| 20260905013052 | 79 | 15 | 6.0 | 14.0 | 0.00 | 0.00 | 0.00 | 37 | 1006.8 |
| 20260905011537 | 80 | 163 | 7.0 | 15.0 | 0.00 | 0.00 | 0.00 | 36 | 1006.8 |
| 20260905010001 | 80 | 180 | 6.0 | 13.0 | 0.00 | 0.00 | 0.00 | 39 | 1006.7 |
| 20260905004537 | 80 | 186 | 8.0 | 18.0 | 0.00 | 0.00 | 0.00 | 38 | 1006.8 |
| 20260905003037 | 80 | 17 | 11.0 | 17.0 | 0.00 | 0.00 | 0.00 | 38 | 1006.8 |
| 20260905001517 | 81 | 14 | 5.0 | 16.0 | 0.00 | 0.00 | 0.00 | 37 | 1006.9 |
| 20260905000107 | 82 | 17 | 8.0 | 16.0 | 0.00 | 0.00 | 0.00 | 36 | 1006.9 |
| 20260904234534 | 83 | 241 | 9.0 | 17.0 | 0.00 | 0.00 | 0.00 | 33 | 1006.9 |
| 20260904233024 | 84 | 230 | 6.0 | 22.0 | 0.00 | 0.00 | 0.00 | 33 | 1006.7 |
| 20260904231503 | 84 | 221 | 7.0 | 16.0 | 0.00 | 0.00 | 0.00 | 33 | 1006.8 |
| 20260904230047 | 84 | 250 | 13.0 | 19.0 | 0.00 | 0.00 | 0.00 | 32 | 1006.7 |
| 20260904224507 | 85 | 202 | 8.0 | 22.0 | 0.00 | 0.00 | 0.00 | 32 | 1007.0 |
| 20260904223050 | 86 | 196 | 9.0 | 19.0 | 0.00 | 0.00 | 0.00 | 30 | 1006.9 |
| 20260904221542 | 87 | 229 | 9.0 | 19.0 | 0.00 | 0.00 | 0.00 | 31 | 1007.0 |
| 20260904220112 | 87 | 206 | 10.0 | 27.0 | 0.00 | 0.00 | 0.00 | 30 | 1007.1 |
| 20260904214522 | 87 | 236 | 10.0 | 21.0 | 0.00 | 0.00 | 0.00 | 29 | 1007.2 |
| 20260904213017 | 87 | 190 | 10.0 | 22.0 | 0.00 | 0.00 | 0.00 | 29 | 1007.3 |
| 20260904211509 | 87 | 214 | 11.0 | 22.0 | 0.00 | 0.00 | 0.00 | 29 | 1007.5 |
| 20260904210106 | 87 | 212 | 8.0 | 22.0 | 0.00 | 0.00 | 0.00 | 30 | 1007.7 |
| 20260904204527 | 86 | 239 | 9.0 | 17.0 | 0.00 | 0.00 | 0.00 | 32 | 1007.5 |
| 20260904203012 | 86 | 213 | 15.0 | 22.0 | 0.00 | 0.00 | 0.00 | 31 | 1007.7 |
| 20260904201556 | 86 | 205 | 8.0 | 21.0 | 0.00 | 0.00 | 0.00 | 32 | 1007.7 |
| 20260904200006 | 86 | 180 | 8.0 | 15.0 | 0.00 | 0.00 | 0.00 | 34 | 1007.8 |
| 20260904194629 | 85 | 202 | 9.0 | 18.0 | 0.00 | 0.00 | 0.00 | 34 | 1008.0 |
| 20260904193035 | 83 | 143 | 9.0 | 15.0 | 0.00 | 0.00 | 0.00 | 38 | 1008.0 |
| 20260904191510 | 82 | 201 | 9.0 | 21.0 | 0.00 | 0.00 | 0.00 | 38 | 1008.3 |